Regional Weather Roundup
Issued by NWS Sterling, VA

Home | Current Version | Previous Version | Graphics & Text | Print | Product List | Glossary On
Versions: 1 2 3 4 5 6 7 8 9 10 11 12 13 14 15 16 17 18 19 20 21 22 23 24 25 26 27 28 29 30 31 32 33 34 35 36 37 38 39 40 41 42 43 44 45 46 47 48 49 50
000
ASUS41 KLWX 281510
RWRLWX

REGIONAL WEATHER ROUNDUP
NATIONAL WEATHER SERVICE BALTIMORE MD/WASHINGTON DC
1100 AM EDT FRI AUG 28 2015

Note: "FAIR" indicates few or no clouds below 12,000 feet
with no significant weather and/or obstructions to visibility.
 TC=TEMPERATURE CELSIUS

 * =Non NWS site. Station does not report precipitation (e.g. rain,
    snow, etc.), thunder, or fog.

DCZ001-MDZ009-015-VAZ040>042-051-053>054-281600-
WASHINGTON METRO

CITY           SKY/WX    TMP DP  RH WIND       PRES   REMARKS
WASHINGTON NAT MOSUNNY   77  56  48 E3        30.22S
DULLES         MOSUNNY   75  56  51 CALM      30.23R
ANDREWS AFB    MOSUNNY   76  55  48 N7        30.21S
FT BELVOIR     SUNNY     77  58  51 CALM      30.22S
QUANTICO       MOSUNNY   76  58  53 VRB3      30.23R
COLLEGE PARK*  SUNNY     77  55  47 CALM      30.22S
LEESBURG*      SUNNY     77  61  57 CALM      30.24S
MANASSAS*      MOSUNNY   75  59  57 CALM      30.23S
GAITHERSBURG*  SUNNY     75  57  53 W5        30.26S

$$

MDZ006>007-011-014-281600-
BALTIMORE METRO

CITY           SKY/WX    TMP DP  RH WIND       PRES   REMARKS
BWI AIRPORT    MOSUNNY   75  55  49 E5        30.22R
MD SCIENCE CTR   N/A     76  56  49 MISG      30.22S
MARTIN STATE   SUNNY     75  59  57 CALM      30.23S
ANNAPOLIS      SUNNY     74  57  55 VRB6      30.22R
FORT MEADE*    SUNNY     73  55  53 NE5       30.24S

$$

MDZ012-015-019>023-281600-
MARYLAND EASTERN SHORE

CITY           SKY/WX    TMP DP  RH WIND       PRES   REMARKS
OCEAN CITY     SUNNY     77  56  48 NE10      30.21R
SALISBURY      SUNNY     77  59  53 N8        30.21R
BAY BRIDGE AP*   N/A     73  55  53 N3        30.22S
CAMBRIDGE*     SUNNY     77  55  47 NE3       30.22R
EASTON*        SUNNY     75  59  57 NE7       30.25S

$$

MDZ017>025-281600-
SOUTHERN MARYLAND

CITY           SKY/WX    TMP DP  RH WIND       PRES   REMARKS
PATUXENT RIVER MOSUNNY   77  59  53 NE8       30.22R
ST INIGOES     SUNNY     78  61  55 N5        30.21R
LEONARDTOWN*   SUNNY     75  59  57 CALM      30.23S

$$

MDZ003>005-281600-
NORTH CENTRAL MARYLAND

CITY           SKY/WX    TMP DP  RH WIND       PRES   REMARKS
FREDERICK*     SUNNY     75  59  57 CALM      30.25S
HAGERSTOWN APT SUNNY     73  56  54 CALM      30.23S
WESTMINSTER*   SUNNY     72  55  56 CALM      30.23S

$$

MDZ501>502-281600-
WESTERN MARYLAND

CITY           SKY/WX    TMP DP  RH WIND       PRES   REMARKS
OAKLAND*       MOSUNNY   64  54  68 SE5       30.28R
CUMBERLAND*    SUNNY     72  57  60 CALM      30.27S

$$

VAZ025>031-281600-
SHENANDOAH VALLEY

CITY           SKY/WX    TMP DP  RH WIND       PRES   REMARKS
WINCHESTER*    MOSUNNY   73  55  53 SE3       30.23S
FRONT ROYAL*   PTSUNNY   72  59  64 CALM      30.23S
LURAY*         FAIR      73  55  53 CALM      30.23S
NEW MARKET*    FAIR      73  57  57 CALM      30.22S
STAUNTON*      SUNNY     76  57  52 S5        30.26S
WAYNESBORO*    FAIR      74  58  56 CALM      30.25S

$$

WVZ021-048>050-054>055-281600-
EASTERN WEST VIRGINIA PANHANDLE

CITY           SKY/WX    TMP DP  RH WIND       PRES   REMARKS
MARTINSBURG    SUNNY     73  56  54 CALM      30.23S
PETERSBURG*    SUNNY     71  56  59 CALM      30.23F

$$

VAZ036>039-050-281600-
CENTRAL FOOTHILLS

CITY           SKY/WX    TMP DP  RH WIND       PRES   REMARKS
CHARLOTTESVILL SUNNY     76 N/A N/A CALM      30.23R
CULPEPER*      MOSUNNY   74  60  60 CALM      30.23S
ORANGE*        SUNNY     77  59  53 CALM      30.24S
GORDONSVILLE*  FAIR      76  61  60 CALM      30.22S
WARRENTON*     FAIR      79  62  56 CALM      30.22F

$$

VAZ055>057-281600-
NORTH AND CENTRAL PIEDMONT

CITY           SKY/WX    TMP DP  RH WIND       PRES   REMARKS
FREDERICKSBRG* SUNNY     78  61  55 CALM      30.21S
STAFFORD*      MOSUNNY   76  58  54 CALM      30.26S

$$

NCZ024-NYZ072-PAZ021-071-VAZ022-071-281600-
OTHER REGIONAL OBSERVATIONS

CITY           SKY/WX    TMP DP  RH WIND       PRES   REMARKS
NEW YORK CITY  SUNNY     73  51  46 VRB5      30.22R
PHILADELPHIA   SUNNY     77  51  40 NW5       30.21R
PITTSBURGH     MOSUNNY   70  55  59 CALM      30.23S
ROANOKE        MOSUNNY   75  60  59 E3        30.26S
RICHMOND       MOSUNNY   79  59  50 CALM      30.22R
RALEIGH        MOSUNNY   78  59  51 E12       30.22R

$$

ANZ530>537-281600-
MARINE OBSERVATIONS

STATION/POSITION TIME  TEMP    WIND        PRES
                       AIR SEA DIR/SP/G
                 (UTC) (F)     (DEG/KT/KT) (MB)
THOMAS PT LIGHT  NOT AVBL
BALT KEY BRIDGE  1400   72      40/  2/  4 1023.2R
COVE POINT       1400   72      30/  5/  7 1023.7R
LEWISETTA        1400   74 77   70/  5/  6 1022.6R
SOLOMONS ISLAND  1400      80                N/A
PINEY POINT      1400           30/  2/  3   N/A

$$




USA.gov is the U.S. government's official web portal to all federal, state and local government web resources and services.